Home > Weather > Tabriz > Past weeks

Flag for Iran Weather for the Past 2 Weeks in Tabriz, Iran

Now
55 °F

Broken clouds.


Feels Like: 55 °F
Forecast: 47 / 71 °F
Wind: No wind

Location: Tabriz Airport

Current Time: May 5, 2016 at 9:35:55 AM

Latest Report: May 5, 2016 at 9:00 AM


Visibility: N/A

Pressure: 29.95 "Hg (25.38 "Hg at 1388m altitude)

Humidity: 77%

Dew Point: 48 °F

Location of TabrizLocation

Historic Weather in Tabriz — Graph

°F

Tabriz Temperature Yesterday

Maximum temperature yesterday: 75 °F (at 2:30 PM)
Minimum temperature yesterday: 50 °F (at 5:30 AM)
Average temperature yesterday: 63 °F

High & Low Weather Summary for the Past Weeks

 TemperatureHumidityPressure
High81 °F (Apr 26, 3:30 PM)100% (May 5, 1:30 AM)30.27 "Hg (May 5, 1:30 AM)
Low37 °F (Apr 23, 4:30 AM)13% (Apr 24, 5:00 PM)29.80 "Hg (May 4, 4:00 PM)
Average60 °F52%30.03 "Hg
* Reported Apr 20 8:30 AM — May 5 8:30 AM, Tabriz, Weather by CustomWeather, © 2016

Note: Actual official high and low records may vary slightly from our data, if they occured in-between our weather recording intervals... More about our weather records

Advertising

Tabriz Weather History for the Previous 24 Hours

Scroll right to see more
 ConditionsComfort  
Time TempWeatherWind HumidityBarometerVisibility
8:30 AM
Thu, May 5
54 °FBroken clouds.5 mph82%29.95 "HgN/A
8:00 AM52 °FBroken clouds.7 mph88%29.92 "HgN/A
7:30 AM52 °FPartly cloudy.7 mph82%29.92 "HgN/A
7:00 AM50 °FPassing clouds.7 mph88%29.92 "HgN/A
6:30 AM50 °FPassing clouds.7 mph94%29.92 "HgN/A
6:00 AM52 °FPassing clouds.7 mph77%29.92 "HgN/A
5:30 AM52 °FPassing clouds.12 mph82%29.92 "HgN/A
5:00 AM50 °FThunderstorms. Mostly cloudy.12 mph88%29.92 "Hg4 mi
4:30 AM50 °FThunderstorms. Mostly cloudy.5 mph94%29.92 "Hg4 mi
4:00 AM52 °FThunderstorms. Mostly cloudy.5 mph88%29.95 "Hg4 mi
3:30 AM52 °FThunderstorms. Mostly cloudy.9 mph88%29.95 "Hg4 mi
3:00 AM50 °FThunderstorms. Mostly cloudy.7 mph94%29.92 "Hg4 mi
2:30 AM52 °FThunderstorms. Mostly cloudy.7 mph88%29.95 "Hg4 mi
2:00 AM50 °FThunderstorms. Mostly cloudy.5 mph94%29.98 "Hg4 mi
1:30 AM50 °FThunderstorms. Fog.5 mph100%29.98 "Hg2 mi
1:00 AM52 °FThunderstorms. Fog.5 mph94%30.01 "Hg2 mi
12:30 AM54 °FThunderstorms. Partly cloudy.5 mph94%29.95 "Hg2 mi
12:00 AM54 °FThunderstorms. Passing clouds.5 mph82%29.92 "Hg2 mi
11:30 PM
Wed, May 4
54 °FThunderstorms. Passing clouds.2 mph82%29.92 "HgN/A
11:00 PM54 °FThunderstorms. Passing clouds.9 mph82%29.92 "Hg5 mi
10:30 PM54 °FStrong thunderstorms. Passing clouds.16 mph88%29.95 "Hg2 mi
10:00 PM57 °FThunderstorms. Passing clouds.12 mph77%29.89 "Hg5 mi
9:30 PM57 °FThunderstorms. Scattered clouds.7 mph77%29.89 "Hg5 mi
9:00 PM59 °FThunderstorms. Scattered clouds.12 mph77%29.89 "Hg5 mi
8:30 PM64 °FThunderstorms. Partly sunny.21 mph56%29.86 "Hg4 mi
8:00 PM68 °FThunderstorms. Scattered clouds.21 mph46%29.83 "Hg5 mi
7:30 PM70 °FScattered clouds.14 mph38%29.83 "HgN/A
7:00 PM72 °FScattered clouds.16 mph38%29.83 "HgN/A
6:30 PM73 °FScattered clouds.16 mph36%29.83 "HgN/A
6:00 PM73 °FPassing clouds.24 mph36%29.83 "HgN/A
5:30 PM73 °FPassing clouds.31 mph36%29.83 "HgN/A
5:00 PM73 °FScattered clouds.12 mph33%29.83 "HgN/A
4:30 PM70 °FSprinkles. Scattered clouds.16 mph35%29.83 "HgN/A
4:00 PM75 °FScattered clouds.18 mph31%29.80 "HgN/A
3:30 PM75 °FScattered clouds.12 mph31%29.83 "HgN/A
3:00 PM75 °FBroken clouds.16 mph29%29.83 "HgN/A
2:30 PM75 °FBroken clouds.16 mph29%29.86 "HgN/A
2:00 PM73 °FPartly sunny.18 mph33%29.86 "HgN/A
1:30 PM73 °FPartly sunny.18 mph31%29.86 "HgN/A
1:00 PM72 °FPartly sunny.9 mph44%29.89 "HgN/A
12:30 PM70 °FPartly sunny.7 mph50%29.89 "HgN/A
12:00 PM66 °FPartly sunny.7 mph56%29.89 "HgN/A
11:30 AM64 °FScattered clouds.7 mph60%29.92 "HgN/A
11:00 AM64 °FScattered clouds.7 mph60%29.92 "HgN/A
10:30 AM66 °FScattered clouds.9 mph56%29.89 "HgN/A
10:00 AM64 °FScattered clouds.5 mph60%29.89 "HgN/A
9:30 AM63 °FScattered clouds.5 mph64%29.89 "HgN/A
9:00 AM61 °FScattered clouds.5 mph68%29.89 "HgN/A
Weather by CustomWeather, © 2016

See weather overviewHow to use our weather pages